User: anonymous
Location: Morehead State University
(38.1872°N, 83.4339°W)
Time: 23:42:37
(UTC-04:00)
Language:

Okean 2 - Orbit

View from above orbital plane
View from above orbital plane
View from above satellite
View from above satellite

Ground track
Ground track

The orbit data is extracted from the following two-line orbital elements,

1 20510U 90018A   14203.80076741  .00000469  00000-0  39407-4 0  7713
2 20510 082.5178 108.1184 0011813 324.5431 094.5321 14.96023509322707
Epoch (UTC): 22 July 2014 19:13:06
Eccentricity: 0.0011813
inclination: 82.5178°
perigee height: 571 km
apogee height: 587 km
right ascension of ascending node: 108.1184°
argument of perigee: 324.5431°
revolutions per day: 14.96023509
mean anomaly at epoch: 94.5321°
orbit number at epoch: 32270

The dashed part of the orbit path shows where the satellite is in the earth's shadow,  

DLR